Location: Saint-Chartres
(46.8355°N, 0.0094°W)
Time: 10:30:28
(UTC+00:00)

Daily predictions for brighter satellites

Satellite Brightness Start Highest point End
(mag) Time Altitude Azimuth Time Altitude Azimuth Time Altitude Azimuth
Meteor 1-31 Rocket 4.0 16:41:08 10° S 16:44:48 47° W 16:48:32 10° NNW
NOSS 2-2 (C) 4.4 16:44:25 10° NW 16:49:35 85° NE 16:56:57 10° SE
Cosmos 1092 Rocket 4.0 16:46:41 10° N 16:53:05 75° E 16:59:23 10° SSE
Cosmos 1898 Rocket 4.2 16:48:06 10° NNW 16:53:16 60° WSW 16:58:22 10° S
CZ-4B R/B 4.2 16:49:53 10° ESE 16:54:02 24° ENE 16:58:11 10° N
CZ-2D R/B 4.3 16:52:59 10° ESE 16:56:05 24° ENE 16:59:10 10° NNE
Meteor 2-21 4.5 16:50:36 10° N 16:56:38 62° ENE 17:02:36 10° SSE
ATLAS CENTAUR R/B 3.1 16:46:15 10° SW 16:57:09 83° NW 17:01:28 10° NE
USA 267 3.6 16:51:03 10° ENE 16:57:27 55° SE 17:03:50 10° SSW
Cosmos 1939 Rocket 3.0 16:54:37 10° SSE 16:58:37 54° ENE 17:02:35 10° N
USA 306 3.7 16:56:05 10° NW 17:00:01 35° NNE 17:03:51 10° E
Cosmos 1151 Rocket 3.7 16:57:13 10° SSE 17:01:06 33° E 17:05:01 10° NNE
Cosmos 1633 Rocket 3.7 16:57:42 10° N 17:01:41 33° ENE 17:05:40 10° SE
COSMO-SKYMED 1 4.2 16:59:26 10° NE 17:02:03 15° E 17:04:38 10° SE
Cosmos 1782 2.8 16:59:10 10° S 17:03:06 63° E 17:07:03 10° NNE
Cosmos 1666 3.3 17:00:04 10° N 17:03:29 33° ENE 17:06:52 10° SE
Cosmos 2360 Rocket 3.6 17:01:07 10° N 17:04:51 18° NE 17:08:17 11° E
ISS -2.4 17:02:28 10° WNW 17:05:43 42° SW 17:08:56 10° SE
Cosmos 1763 Rocket 4.4 17:03:01 10° SW 17:07:53 46° WNW 17:12:50 10° NNE
SeaSat 1 4.1 17:04:57 10° N 17:09:08 28° NW 17:13:17 10° WSW
SL-08 R/B 3.7 17:05:09 10° N 17:09:48 65° WNW 17:14:22 10° SSW
Cosmos 1818 3.7 17:05:38 10° NNW 17:11:03 56° NE 17:16:23 10° SE
NOAA 12 4.3 17:05:54 10° SSE 17:11:14 80° WSW 17:16:35 10° NNW
CZ-2C R/B 3.8 17:12:44 10° SSW 17:15:00 14° S 17:17:15 10° SE
Meteor 2-14 Rocket 4.4 17:09:48 10° N 17:15:57 86° E 17:22:01 10° S
Cosmos 2279 Rocket 4.1 17:11:08 10° SSE 17:17:06 52° E 17:23:06 10° NNE
ATLAS 5 CENTAUR R/B 3.2 17:09:30 10° NW 17:17:17 35° NNE 17:19:38 16° E
Cosmos 841 Rocket 3.6 17:12:53 10° SSW 17:18:03 80° WNW 17:23:14 10° NNE
ERBS 4.4 17:17:49 10° NNW 17:19:34 14° N 17:20:46 12° NNE
USA 307 3.5 17:16:40 10° NW 17:20:41 39° NNE 17:23:32 17° ENE
CZ-4C R/B 3.1 17:14:48 10° NW 17:22:03 90° NNE 17:30:32 10° SE
Lacrosse 5 rocket 1.2 17:20:14 10° NW 17:24:07 70° NE 17:28:14 10° ESE
Cosmos 1697 Rocket 4.5 17:20:02 10° NW 17:25:06 35° WSW 17:30:09 10° S
Cosmos 372 Rocket 4.4 17:20:04 10° NNW 17:25:18 68° WSW 17:30:30 10° S
ATLAS 2AS CENTAUR R/B 4.3 17:21:22 10° NW 17:26:57 21° N 17:31:18 13° NE
Cosmos 2208 Rocket 4.2 17:22:15 10° S 17:27:30 55° ESE 17:32:50 10° NNE
Cosmos 2322 Rocket 2.8 17:23:00 10° NNW 17:28:10 33° NE 17:33:17 10° ESE
AQUARIUS 4.1 17:25:27 10° SSE 17:29:55 89° E 17:34:27 10° NNW
Cosmos 2150 Rocket 4.3 17:25:16 10° NNW 17:30:15 44° ENE 17:35:15 10° SE
Cosmos 1328 Rocket 3.8 17:26:50 10° SSE 17:31:06 48° E 17:35:23 10° NNE
Cosmos 1666 Rocket 3.5 17:26:54 10° N 17:31:21 79° E 17:35:43 10° SSE
USA 234 3.2 17:24:55 10° ESE 17:31:26 73° NNE 17:37:57 10° NW
Cosmos 1980 Rocket 2.8 17:25:57 10° NNW 17:31:32 60° WSW 17:37:03 10° S
Cosmos 1470 Rocket 3.9 17:30:39 10° N 17:34:55 43° ENE 17:39:11 10° SSE
Cosmos 1544 3.8 17:31:46 10° NNE 17:35:00 29° ENE 17:38:12 10° SE
CORIOLIS 4.3 17:30:01 10° SSE 17:35:26 83° WSW 17:40:55 10° NNW
Cosmos 1125 Rocket 3.7 17:31:25 10° NNW 17:36:30 47° ENE 17:41:33 10° SE
Cosmos 1812 2.7 17:33:03 10° S 17:36:54 89° NW 17:40:47 10° N
X-37B 2.2 17:34:39 10° SSW 17:36:54 20° SSE 17:37:49 18° SE
Cosmos 2026 Rocket 4.5 17:31:46 10° NNW 17:37:48 63° W 17:43:44 10° S
PSLV R/B 3.5 17:34:21 10° SSE 17:38:02 78° ENE 17:41:49 10° N
H-2A R/B 1.9 17:33:45 10° SSE 17:38:49 66° ENE 17:43:46 10° N
Cosmos 1634 Rocket 4.3 17:33:13 10° SSW 17:39:32 72° W 17:45:53 10° N
Okean O Rocket 2.1 17:36:34 10° SE 17:40:41 38° ENE 17:44:48 10° N
Meteor 2-8 Rocket 4.5 17:35:00 10° S 17:41:01 60° E 17:47:04 10° NNE
Meteor 1-11 Rocket 4.1 17:36:38 10° N 17:41:59 42° ENE 17:47:25 10° SE
USA 308 3.3 17:39:22 10° NW 17:43:29 46° NNE 17:45:21 28° ENE
SL-16 R/B 2.2 17:43:22 10° NNW 17:48:59 58° ENE 17:54:34 10° SE
SKYMED 2 3.8 17:47:47 20° NE 17:50:29 45° E 17:54:39 10° S
ARGOS 3.2 17:45:30 10° SE 17:50:44 53° ENE 17:55:58 10° N
Cosmos 2082 Rocket 2.8 17:45:43 10° SW 17:51:16 55° WNW 17:56:51 10° NNE
SMAP 4.2 17:49:47 10° S 17:54:15 46° W 17:58:45 10° NNW
deb Chang Zheng 4 3.5 17:51:57 10° SSE 17:56:11 60° ENE 18:00:27 10° N
COSMOS 2455 3.8 17:53:56 10° WSW 17:59:41 45° NW 18:04:53 13° NNE
USA 305 2.8 18:03:40 10° NW 18:07:54 65° NNE 18:08:52 48° E
Cosmos 2333 Rocket 3.3 18:03:49 10° N 18:08:04 25° NE 18:08:04 25° NE
Cosmos 1356 Rocket 3.3 18:05:26 10° N 18:09:38 65° ENE 18:13:52 10° SSE
CZ-2C R/B 2.4 18:06:50 12° NNE 18:11:41 76° ESE 18:16:51 10° S
Cosmos 2219 Rocket 3.6 18:11:52 10° N 18:15:05 22° NNE 18:15:05 22° NNE
Cosmos 44 Rocket 4.2 18:12:19 10° NW 18:17:02 48° WSW 18:21:34 10° SSE
Aureole 3 Rocket 3.6 18:13:02 10° SSE 18:17:29 54° E 18:23:47 10° NNE
Cosmos 1655 Rocket 4.0 18:11:10 10° N 18:17:36 88° ENE 18:23:57 10° S
Cosmos 1515 Rocket 3.4 18:13:46 10° S 18:18:12 83° E 18:20:27 29° NNE
Cosmos 921 Rocket 3.2 18:16:31 10° SSW 18:20:41 66° WNW 18:22:47 29° N
CZ-4 R/B 4.4 18:21:19 10° S 18:25:27 81° WSW 18:29:38 10° NNW
CZ-4B R/B 3.7 18:28:56 10° S 18:34:14 58° WSW 18:39:30 10° NNW
Cosmos 371 Rocket 4.4 18:31:06 10° NNW 18:33:50 31° N 18:33:50 31° N
COSMO-SKYMED 1 3.1 18:36:23 27° N 18:38:35 58° WNW 18:42:50 10° SSW
USA 306 2.9 18:35:58 10° WNW 18:39:52 74° WNW 18:39:52 74° WNW
USA 267 3.5 18:37:47 35° NE 18:40:31 60° NNW 18:46:55 10° WSW
Landsat 5 3.5 18:41:36 69° SW 18:41:36 69° SW 18:45:09 10° SSW
APEX 4.3 18:40:09 10° SW 18:43:02 37° W 18:43:02 37° W
Meteor 1-27 Rocket 3.5 18:38:37 10° S 18:44:08 90° WNW 18:46:30 36° N
Cosmos 2360 Rocket 2.0 18:44:08 10° NNW 18:49:50 77° ENE 18:50:07 75° E
Cosmos 2237 4.3 18:47:34 10° NNW 18:53:17 76° WSW 18:55:53 34° SSE
CZ-2C R/B 3.6 18:51:05 10° SW 18:53:23 16° S 18:53:23 16° S
USA 307 3.9 18:56:34 10° WNW 18:59:35 44° WNW 18:59:35 44° WNW
Lacrosse 5 rocket 3.7 18:59:56 10° W 19:02:54 20° SW 19:04:38 16° SSW
Cosmos 2322 Rocket 3.1 19:06:56 10° NW 19:12:22 46° WSW 19:17:08 13° S
COSMOS 2428 4.4 19:08:40 10° NNW 19:10:45 22° N 19:10:45 22° N
USA 234 4.3 19:10:00 17° SSE 19:14:43 41° SW 19:20:50 10° WNW
Okean O Rocket 3.8 19:13:27 10° SSW 19:17:07 25° W 19:20:48 10° NW
NOSS 3-4 (A) 4.0 19:10:35 10° NW 19:16:19 54° N 19:16:19 54° N
NOSS 3-4 (C) 4.1 19:10:42 10° NW 19:16:23 53° N 19:16:23 53° N
Cosmos 1867 4.1 19:14:17 10° SW 19:19:09 58° WNW 19:19:09 58° WNW
ATLAS 2AS CENTAUR R/B 3.8 19:13:36 10° NNW 19:18:44 32° N 19:18:44 32° N
NOSS 3-3 (A) 4.1 19:21:05 10° SW 19:25:51 63° WSW 19:25:51 63° WSW
NOSS 3-3 (C) 4.2 19:21:11 10° SW 19:25:55 63° WSW 19:25:55 63° WSW
ATLAS CENTAUR R/B 4.5 19:24:38 10° WNW 19:27:07 17° NW 19:27:07 17° NW
SL-16 R/B 4.3 19:28:11 10° NW 19:32:40 24° WSW 19:37:08 10° SSW
Cosmos 2333 Rocket 3.9 19:47:39 10° NNW 19:50:08 26° NW 19:50:08 26° NW
Cosmos 2219 Rocket 4.3 19:55:15 10° NNW 19:56:49 19° NNW 19:56:49 19° NNW
